Tracking 21475 objects as of 29-Sep-2020
HD Live streaming from Space Station
objects crossing your sky now

COSMOS 520

Track COSMOS 520 now!
COSMOS 520 is classified as:


NORAD ID: 6192
Int'l Code: 1972-072A
Perigee: 8,696.7 km
Apogee: 31,545.8 km
Inclination: 72.9 °
Period: 715.2 minutes
Semi major axis: 26492 km
RCS: 12.5618 m2 (large)
Launch date: September 19, 1972
Source: Commonwealth of Independent States (former USSR) (CIS)
Launch site: PLESETSK MISSILE AND SPACE COMPLEX (PKMTR)
aabbcc
Your satellite tracking list
Your tracking list is empty




NASA's NSSDC Master Catalog

Two Line Element Set (TLE):
1  6192U 72072A   20272.63836451 +.00000050 +00000-0 +00000-0 0  9990
2  6192 072.9365 296.6762 4312424 253.5889 306.5367 02.01337752353157
Source of the keplerian elements: AFSPC